TimeCDT,TemperatureF,Dew PointF,Humidity,Sea Level PressureIn,VisibilityMPH,Wind Direction,Wind SpeedMPH,Gust SpeedMPH,PrecipitationIn,Events,Conditions,WindDirDegrees,DateUTC
12:08 AM,64.4,62.6,94,30.01,10.0,SSE,11.5,-,N/A,,Overcast,150,2012-10-13 05:08:00
12:42 AM,64.4,62.6,94,29.98,10.0,SSE,12.7,-,N/A,,Overcast,150,2012-10-13 05:42:00
12:54 AM,64.9,63.0,93,29.95,10.0,SSE,15.0,-,N/A,,Overcast,150,2012-10-13 05:54:00
1:54 AM,64.9,63.0,93,29.94,10.0,South,15.0,-,N/A,,Mostly Cloudy,170,2012-10-13 06:54:00
2:54 AM,64.9,64.0,97,29.91,9.0,SSE,15.0,-,N/A,,Mostly Cloudy,160,2012-10-13 07:54:00
3:27 AM,66.2,64.4,94,29.92,9.0,South,13.8,24.2,N/A,,Mostly Cloudy,180,2012-10-13 08:27:00
3:41 AM,66.2,64.4,94,29.92,9.0,South,16.1,-,N/A,,Mostly Cloudy,180,2012-10-13 08:41:00
3:54 AM,66.9,64.0,90,29.91,10.0,South,19.6,24.2,N/A,,Mostly Cloudy,180,2012-10-13 08:54:00
4:26 AM,68.0,64.4,88,29.90,10.0,South,17.3,25.3,N/A,,Mostly Cloudy,170,2012-10-13 09:26:00
4:54 AM,68.0,64.9,90,29.89,10.0,South,17.3,25.3,N/A,,Partly Cloudy,180,2012-10-13 09:54:00
5:47 AM,68.0,64.4,88,29.90,10.0,South,11.5,20.7,N/A,,Mostly Cloudy,190,2012-10-13 10:47:00
5:54 AM,69.1,64.9,87,29.89,10.0,South,13.8,21.9,N/A,,Mostly Cloudy,190,2012-10-13 10:54:00
6:18 AM,68.0,64.4,88,29.90,10.0,South,10.4,-,N/A,,Mostly Cloudy,190,2012-10-13 11:18:00
6:50 AM,68.0,64.4,88,29.92,9.0,South,12.7,19.6,N/A,Thunderstorm,Overcast,190,2012-10-13 11:50:00
6:54 AM,68.0,64.9,90,29.90,9.0,South,13.8,-,N/A,Thunderstorm,Overcast,190,2012-10-13 11:54:00
7:05 AM,68.0,64.4,88,29.91,9.0,South,12.7,20.7,N/A,,Overcast,190,2012-10-13 12:05:00
7:27 AM,68.0,64.4,88,29.89,8.0,South,15.0,-,0.00,Rain-Thunderstorm,Light Rain,180,2012-10-13 12:27:00
7:48 AM,68.0,66.2,94,29.89,6.0,South,15.0,21.9,0.05,Rain-Thunderstorm,Light Thunderstorms and Rain,190,2012-10-13 12:48:00
7:52 AM,68.0,66.2,94,29.89,7.0,South,15.0,21.9,0.05,Rain-Thunderstorm,Light Rain,190,2012-10-13 12:52:00
7:54 AM,68.0,66.0,93,29.88,7.0,South,12.7,21.9,0.05,Rain-Thunderstorm,Light Rain,190,2012-10-13 12:54:00
8:00 AM,68.0,66.2,94,29.90,5.0,South,15.0,-,0.00,Rain,Light Rain,190,2012-10-13 13:00:00
8:12 AM,68.0,66.2,94,29.89,5.0,South,13.8,-,0.02,Rain-Thunderstorm,Light Rain,190,2012-10-13 13:12:00
8:38 AM,68.0,66.2,94,29.89,9.0,SSW,13.8,25.3,0.04,Rain,Light Rain,200,2012-10-13 13:38:00
9:11 AM,68.0,66.2,94,29.88,6.0,South,16.1,23.0,0.01,Rain-Thunderstorm,Light Rain,190,2012-10-13 14:11:00
9:32 AM,68.0,66.2,94,29.86,7.0,South,13.8,-,0.01,,Overcast,170,2012-10-13 14:32:00
9:54 AM,69.1,66.0,90,29.82,7.0,South,15.0,21.9,0.01,,Overcast,170,2012-10-13 14:54:00
10:54 AM,70.0,66.0,87,29.81,9.0,South,18.4,25.3,N/A,,Overcast,190,2012-10-13 15:54:00
11:54 AM,70.0,66.9,90,29.79,10.0,South,15.0,20.7,N/A,,Overcast,180,2012-10-13 16:54:00
12:05 PM,69.8,66.2,88,29.81,10.0,South,15.0,20.7,N/A,Thunderstorm,Overcast,180,2012-10-13 17:05:00
12:20 PM,69.8,66.2,88,29.81,10.0,South,13.8,21.9,N/A,,Overcast,180,2012-10-13 17:20:00
12:54 PM,70.0,66.9,90,29.76,10.0,South,15.0,21.9,0.00,Rain-Thunderstorm,Light Rain,190,2012-10-13 17:54:00
1:11 PM,69.8,66.2,88,29.77,10.0,South,13.8,21.9,0.00,Rain,Light Rain,190,2012-10-13 18:11:00
1:54 PM,72.0,68.0,87,29.71,10.0,South,13.8,23.0,0.00,,Overcast,190,2012-10-13 18:54:00
3:54 PM,73.0,69.1,87,29.65,10.0,South,17.3,24.2,0.01,,Overcast,190,2012-10-13 20:54:00
4:10 PM,73.4,69.8,88,29.66,10.0,South,16.1,24.2,N/A,,Mostly Cloudy,170,2012-10-13 21:10:00
4:27 PM,73.4,69.8,88,29.66,7.0,South,18.4,24.2,0.02,Rain-Thunderstorm,Rain,180,2012-10-13 21:27:00
4:54 PM,64.9,61.0,87,29.62,5.0,South,21.9,29.9,0.11,Rain-Thunderstorm,Thunderstorms and Rain,170,2012-10-13 21:54:00
5:20 PM,69.8,64.4,83,29.62,10.0,South,11.5,-,0.00,,Scattered Clouds,180,2012-10-13 22:20:00
5:33 PM,69.8,64.4,83,29.63,10.0,South,9.2,20.7,0.00,Thunderstorm,Partly Cloudy,180,2012-10-13 22:33:00
5:54 PM,71.1,66.0,84,29.61,10.0,SSE,11.5,19.6,0.00,,Mostly Cloudy,160,2012-10-13 22:54:00
6:41 PM,71.6,68.0,88,29.61,10.0,South,13.8,-,N/A,,Overcast,190,2012-10-13 23:41:00
6:54 PM,72.0,68.0,87,29.58,10.0,South,11.5,-,N/A,,Overcast,180,2012-10-13 23:54:00
7:22 PM,71.6,68.0,88,29.62,10.0,South,15.0,-,N/A,,Mostly Cloudy,180,2012-10-14 00:22:00
7:54 PM,70.0,66.9,90,29.60,10.0,South,12.7,-,N/A,,Partly Cloudy,170,2012-10-14 00:54:00
9:54 PM,63.0,60.1,90,29.61,10.0,SSW,8.1,-,N/A,,Clear,200,2012-10-14 02:54:00